DW0156 Weather Reports


time (UTC)temp
F
wind
direction
speed
knots
gust
knots
rain 1hr
in
rain 24hr
in
rain mn
in
humidity
%
barometer
mb
20260503021625 64 263 3.5 13.9 0.00 0.32 0.10 62 1011.0
20260503015904 64 263 5.2 18.2 0.00 0.32 0.10 65 1010.8
20260503015403 63 263 2.6 18.2 0.00 0.32 0.10 66 1010.8
20260503014910 63 263 2.6 14.8 0.00 0.32 0.10 68 1010.8
20260503014358 62 263 2.6 14.8 0.00 0.32 0.10 69 1011.0
20260503013905 62 263 2.6 14.8 0.00 0.32 0.10 70 1011.0
20260503013359 62 263 2.6 13.0 0.00 0.32 0.10 70 1011.0
20260503010928 61 263 3.5 11.3 0.00 0.32 0.10 71 1011.1
20260503010412 60 263 2.6 11.3 0.00 0.32 0.10 72 1011.1
20260503005909 60 263 1.7 9.6 0.00 0.32 0.10 73 1011.1
20260503005405 60 263 2.6 11.3 0.00 0.32 0.10 73 1011.0
20260503004846 61 263 3.5 11.3 0.00 0.32 0.10 71 1011.0
20260503004354 61 263 2.6 15.6 0.00 0.32 0.10 69 1011.2
20260503003846 61 263 3.5 15.6 0.00 0.32 0.10 68 1011.2
20260503003338 61 263 3.5 15.6 0.00 0.32 0.10 69 1011.2
20260503002836 61 263 3.5 15.6 0.00 0.32 0.10 68 1011.2
20260503002340 61 263 2.6 16.5 0.00 0.32 0.10 68 1011.2
20260503001841 62 263 2.6 16.5 0.00 0.33 0.10 69 1011.2
20260503001331 62 263 3.5 16.5 0.00 0.33 0.10 69 1011.2
20260503000834 61 263 3.5 16.5 0.00 0.33 0.10 71 1011.2
20260503000339 61 263 3.5 13.9 0.00 0.33 0.10 72 1011.2
20260502235849 60 263 2.6 13.9 0.00 0.33 0.10 74 1011.2
20260502235336 60 263 3.5 13.9 0.00 0.33 0.09 77 1011.2
20260502234830 59 263 3.5 13.9 0.00 0.33 0.09 78 1011.2
20260502234317 58 263 2.6 10.4 0.00 0.33 0.09 80 1011.2
20260502233802 58 263 3.5 10.4 0.00 0.33 0.09 82 1011.2
20260502233303 58 263 3.5 10.4 0.00 0.33 0.09 83 1011.2
20260502232753 57 263 3.5 11.3 0.00 0.33 0.09 83 1011.3
20260502232249 57 263 2.6 11.3 0.00 0.33 0.09 85 1011.3
20260502231737 56 263 2.6 11.3 0.00 0.33 0.09 85 1011.3
20260502231246 56 263 1.7 11.3 0.00 0.33 0.09 85 1011.3
20260502230740 56 263 1.7 8.7 0.00 0.33 0.09 86 1011.3
20260502230223 56 263 1.7 8.7 0.00 0.33 0.09 86 1011.3
20260502225727 56 263 2.6 8.7 0.00 0.33 0.09 86 1011.3
20260502225220 56 263 1.7 8.7 0.00 0.33 0.09 87 1011.3
20260502224709 55 263 1.7 4.3 0.00 0.33 0.09 88 1011.3
20260502224215 55 263 1.7 7.8 0.00 0.33 0.09 88 1011.3
20260502223657 55 263 0.9 7.8 0.00 0.33 0.09 88 1011.3
20260502223140 55 263 1.7 7.8 0.00 0.33 0.09 89 1011.3
20260502222622 55 263 1.7 7.8 0.00 0.33 0.09 89 1011.2
20260502222125 55 263 1.7 7.0 0.00 0.33 0.09 89 1011.2
20260502221612 55 263 1.7 5.2 0.00 0.33 0.09 89 1011.2
20260502221118 55 263 1.7 8.7 0.00 0.33 0.09 89 1011.1
20260502220627 55 263 2.6 8.7 0.00 0.33 0.09 89 1011.1
20260502220120 55 263 3.5 8.7 0.00 0.33 0.09 89 1011.1
20260502215016 54 263 2.6 7.8 0.00 0.33 0.09 89 1011.2
20260502214502 54 263 2.6 7.0 0.00 0.33 0.09 89 1011.2
20260502214001 54 263 1.7 7.0 0.00 0.33 0.09 89 1010.9
20260502213450 55 263 2.6 5.2 0.00 0.33 0.09 89 1010.9
20260502212941 55 263 1.7 7.0 0.00 0.33 0.09 89 1010.9
20260502211819 55 263 2.6 7.8 0.03 0.33 0.09 89 1010.6
20260502211327 55 263 2.6 7.8 0.05 0.33 0.09 88 1010.2
20260502210808 55 263 2.6 8.7 0.13 0.33 0.09 88 1010.2
20260502210315 55 263 2.6 8.7 0.00 0.31 0.07 88 1010.2
20260502205806 55 263 1.7 8.7 0.00 0.31 0.07 88 1010.2
20260502205255 55 263 2.6 8.7 0.00 0.31 0.07 88 1010.2
20260502204747 55 263 1.7 7.8 0.00 0.31 0.07 88 1010.2
20260502204238 55 263 1.7 7.8 0.00 0.31 0.07 88 1010.2
20260502203740 55 263 1.7 7.8 0.00 0.31 0.07 88 1010.2
20260502203226 55 263 1.7 7.8 0.00 0.31 0.07 88 1010.2
20260502202721 55 263 1.7 7.8 0.00 0.31 0.07 89 1010.2
20260502202203 55 263 1.7 7.8 0.00 0.31 0.07 89 1010.2
20260502201709 55 263 1.7 7.0 0.00 0.31 0.07 89 1010.2
20260502200547 55 263 1.7 7.0 0.00 0.31 0.07 89 1010.2
20260502200040 55 263 2.6 7.0 0.00 0.31 0.07 89 1010.2
20260502195544 55 263 1.7 7.0 0.00 0.31 0.07 89 1010.2
20260502195048 55 263 1.7 8.7 0.00 0.31 0.07 89 1010.2
20260502194538 55 263 1.7 8.7 0.00 0.31 0.07 90 1010.2
20260502193404 55 263 1.7 8.7 0.00 0.31 0.07 89 1010.1
20260502192851 55 263 2.6 7.0 0.00 0.31 0.07 89 1010.0
20260502192338 55 263 1.7 7.8 0.00 0.31 0.07 90 1010.0
20260502191205 55 263 1.7 7.8 0.00 0.31 0.07 90 1009.8
20260502190040 55 263 1.7 5.2 0.00 0.31 0.07 90 1009.8
20260502185546 55 263 1.7 5.2 0.00 0.31 0.07 90 1009.8
20260502185045 55 263 1.7 5.2 0.00 0.31 0.07 90 1009.8
20260502183922 55 263 1.7 5.2 0.00 0.31 0.07 90 1009.8
20260502182816 55 263 0.9 6.1 0.00 0.31 0.07 89 1009.7
20260502182256 55 263 1.7 6.1 0.00 0.31 0.07 89 1009.7
20260502181754 55 263 1.7 6.1 0.00 0.31 0.07 89 1009.7
20260502181247 55 263 1.7 5.2 0.00 0.31 0.07 89 1009.7
20260502180730 55 263 1.7 5.2 0.00 0.31 0.07 89 1009.7
20260502180235 55 263 0.9 5.2 0.00 0.31 0.07 89 1009.7
20260502170114 56 263 1.7 5.2 0.00 0.30 0.06 87 1009.9
20260502164138 57 263 1.7 7.0 0.09 0.30 0.06 85 1010.1
20260502163022 57 263 1.7 7.8 1.18 0.24 0.02 83 1010.1
20260502162521 58 263 1.7 7.8 0.00 0.24 0.00 82 1010.1
20260502161407 58 263 0.9 4.3 0.00 0.24 0.00 81 1010.2
20260502160242 58 263 0.9 3.5 0.00 0.24 0.00 81 1010.2
20260502152108 59 263 0.9 5.2 0.00 0.24 0.00 79 1010.4
20260502151606 59 263 0.9 5.2 0.00 0.24 0.00 80 1010.4
20260502151059 59 263 0.9 5.2 0.00 0.24 0.00 80 1010.6
20260502150542 59 263 0.0 4.3 0.00 0.24 0.00 81 1010.6
20260502130501 58 263 1.7 7.0 0.00 0.24 0.24 91 1011.1
20260502123701 58 263 1.7 5.2 0.00 0.24 0.24 91 1011.2
20260502123206 58 263 1.7 4.3 0.00 0.24 0.24 91 1011.2
20260502122657 58 263 0.9 5.2 0.00 0.24 0.24 91 1011.2
20260502122139 58 263 0.9 5.2 0.00 0.24 0.24 91 1011.2
20260502121646 58 263 1.7 5.2 0.00 0.24 0.24 91 1011.2
20260502121139 59 263 1.7 5.2 0.00 0.24 0.24 91 1011.1
20260502120626 59 263 1.7 8.7 0.00 0.24 0.24 91 1011.1
20260502120128 59 263 1.7 8.7 0.00 0.24 0.24 91 1011.1
20260502115632 59 263 1.7 8.7 0.00 0.24 0.24 91 1011.1
20260502115117 59 263 1.7 8.7 0.00 0.24 0.24 91 1011.1
20260502114004 59 263 1.7 7.8 0.00 0.24 0.24 91 1010.9
20260502113508 59 263 1.7 7.8 0.00 0.24 0.24 91 1010.9
20260502112410 59 263 1.7 7.8 0.00 0.24 0.24 91 1010.7
20260502111851 59 263 1.7 7.8 0.00 0.24 0.24 92 1010.7
20260502111346 59 263 2.6 7.0 0.00 0.24 0.24 92 1010.5
20260502110226 58 263 1.7 6.1 0.00 0.24 0.24 92 1010.5
20260502105712 58 263 1.7 6.1 0.00 0.24 0.24 92 1010.6
20260502105214 58 263 1.7 7.0 0.00 0.24 0.24 92 1010.6
20260502104719 58 263 1.7 7.0 0.00 0.24 0.24 92 1010.6
20260502104209 58 263 1.7 7.0 0.00 0.24 0.24 92 1010.3
20260502103717 58 263 1.7 7.0 0.00 0.24 0.24 92 1010.3
20260502103159 58 263 0.9 4.3 0.00 0.24 0.24 92 1010.3
20260502102049 58 263 0.9 4.3 0.00 0.24 0.24 92 1010.1
20260502101535 58 263 0.9 3.5 0.00 0.24 0.24 92 1010.1
20260502101032 58 263 0.9 4.3 0.00 0.24 0.24 92 1010.2
20260502100527 58 263 0.9 4.3 0.00 0.23 0.24 92 1010.2
20260502091512 59 263 0.0 3.5 0.00 0.23 0.23 92 1010.0
20260502091006 59 263 0.9 4.3 0.00 0.23 0.23 92 1009.9
20260502090454 59 263 0.9 4.3 0.00 0.23 0.23 91 1009.9
20260502071036 59 263 0.9 12.2 0.03 0.23 0.23 90 1009.9
20260502070538 59 263 1.7 12.2 0.06 0.23 0.23 90 1009.9
20260502070036 60 263 1.7 12.2 0.06 0.23 0.23 90 1009.9
20260502065522 60 263 1.7 7.0 0.00 0.22 0.22 90 1009.9
20260502065007 60 263 2.6 7.0 0.00 0.22 0.22 90 1009.9
20260502064510 60 263 1.7 7.0 0.00 0.22 0.22 90 1009.9
20260502064005 60 263 1.7 4.3 0.00 0.22 0.22 90 1009.4
20260502063506 60 263 0.9 4.3 0.00 0.22 0.22 90 1009.4
20260502062346 60 263 0.9 4.3 0.00 0.22 0.22 89 1009.1
20260502061214 61 263 0.9 4.3 0.03 0.22 0.22 89 1009.3
20260502060043 61 263 0.9 4.3 0.04 0.21 0.21 89 1009.3
20260502054905 61 263 0.0 5.2 0.07 0.20 0.20 89 1009.5
20260502053740 61 263 0.0 1.7 0.06 0.18 0.18 89 1009.5
20260502053250 61 263 0.0 2.6 0.03 0.18 0.18 88 1009.5
20260502052137 61 263 0.0 5.2 0.04 0.17 0.17 88 1009.1
20260502051636 61 263 0.9 5.2 0.04 0.17 0.17 88 1009.1
20260502051125 61 263 0.9 5.2 0.05 0.16 0.16 88 1009.3
20260502050634 61 263 0.0 4.3 0.10 0.16 0.16 87 1009.3
20260502050129 61 263 0.0 4.3 0.07 0.15 0.15 87 1009.3
20260502045616 61 263 0.9 7.8 0.10 0.14 0.14 87 1009.4
20260502045112 61 263 0.0 7.8 0.06 0.13 0.14 87 1009.4
20260502044559 61 263 1.7 7.8 0.14 0.13 0.13 86 1009.4
20260502044103 61 263 1.7 7.8 0.32 0.11 0.12 86 1009.5
20260502042935 62 263 0.9 7.0 0.04 0.09 0.09 85 1009.5
20260502042441 62 263 0.0 7.0 0.07 0.08 0.08 85 1009.3
20260502041936 62 263 0.0 2.6 0.25 0.08 0.08 85 1009.3
20260502041442 62 263 0.0 1.7 0.00 0.07 0.07 84 1009.3
20260502040924 63 263 0.0 5.2 0.00 0.07 0.07 84 1009.3
20260502035353 63 263 0.0 4.3 0.14 0.07 0.07 83 1009.5
20260502034839 64 263 0.0 4.3 0.15 0.05 0.06 82 1009.5
20260502034340 64 263 0.0 1.7 0.00 0.05 0.05 82 1009.2
20260502033848 64 263 0.0 1.7 0.00 0.05 0.05 81 1009.2
20260502033345 64 263 0.0 1.7 0.03 0.05 0.05 81 1009.2
20260502032843 64 263 0.0 2.6 0.04 0.05 0.05 80 1009.3
20260502032351 64 263 0.0 5.2 0.06 0.05 0.05 79 1009.3
20260502031228 65 263 2.6 9.6 0.14 0.04 0.04 76 1009.5
20260502030729 65 263 3.5 9.6 0.11 0.03 0.03 74 1009.5
20260502030226 66 263 2.6 9.6 0.00 0.02 0.02 71 1009.5
20260502025734 66 263 2.6 10.4 0.00 0.02 0.02 70 1009.0
20260502025224 66 263 3.5 10.4 0.00 0.02 0.02 70 1009.0
20260502024724 67 263 3.5 10.4 0.00 0.02 0.02 70 1009.0
20260502024229 67 263 3.5 10.4 0.00 0.02 0.02 71 1009.4
20260502023105 67 263 2.6 9.6 0.00 0.02 0.02 73 1009.4